This demonstration page uses our WeatherBlox Daily Observations layout. Learn more.

Left ArrowRight Arrow

Hourly Observations for July 16, 2021

Temp ( °F °C ) Dew Point ( °F °C ) Humidity (%) Winds ( mph kmh ) Pressure ( in mb ) Visibility ( mi km ) Precip ( " mm )
12:15 am 00:15 Partly Cloudy 67 19.7 66 19.1 96 96 NE 3 6 29.93 1014 7 11 N/A
12:35 am 00:35 Mostly Cloudy with Mist and Fog 67 19.3 66 18.8 97 97 E 3 6 29.94 1014 4 6 N/A
12:55 am 00:55 Cloudy with Mist and Fog 67 19.7 67 19.4 98 98 E 5 7 29.93 1014 4 6 N/A
1:15 am 01:15 Cloudy with Mist and Fog 68 19.9 67 19.5 98 98 E 3 6 29.93 1014 4 6 N/A
1:35 am 01:35 Cloudy with Mist and Fog 68 20 67 19.5 97 97 E 6 9 29.92 1013 4 6 N/A
1:55 am 01:55 Cloudy with Mist and Fog 68 20.1 67 19.5 96 96 ESE 6 9 29.93 1014 4 6 N/A
2:15 am 02:15 Cloudy with Mist and Fog 68 20.2 67 19.6 96 96 E 6 9 29.92 1013 4 6 N/A
2:35 am 02:35 Cloudy 68 20.2 67 19.7 97 97 ESE 9 15 29.92 1013 N/A N/A
2:55 am 02:55 Cloudy 68 20.1 67 19.7 98 98 ESE 7 11 29.92 1013 3 4 N/A
3:15 am 03:15 Cloudy with Mist and Fog 68 20 67 19.6 98 98 ESE 7 11 29.91 1013 1 2 N/A
3:35 am 03:35 Cloudy with Mist and Fog 68 20.1 67 19.7 98 98 ESE 6 9 29.91 1013 3 4 N/A
3:55 am 03:55 Cloudy with Mist and Fog 68 20.2 68 19.8 98 98 ESE 3 6 29.91 1013 3 5 N/A
4:15 am 04:15 Cloudy with Mist and Fog 69 20.4 68 19.9 97 97 SE 6 9 29.91 1013 4 6 N/A
4:35 am 04:35 Cloudy with Mist and Fog 69 20.5 68 19.8 96 96 SE 6 9 29.92 1013 5 8 N/A
4:55 am 04:55 Cloudy with Mist and Fog 69 20.5 67 19.7 95 95 ESE 6 9 29.92 1013 5 8 N/A
5:15 am 05:15 Cloudy with Mist and Fog 69 20.5 67 19.7 95 95 E 3 6 29.92 1013 5 8 N/A
5:35 am 05:35 Cloudy with Mist and Fog 69 20.5 68 19.8 96 96 ESE 3 6 29.92 1013 5 8 N/A
5:55 am 05:55 Cloudy with Mist and Fog 69 20.5 68 19.8 96 96 ESE 3 6 29.93 1013 5 8 N/A
6:15 am 06:15 Cloudy with Mist and Fog 69 20.5 67 19.7 95 95 E 5 7 29.93 1013 4 6 N/A
6:35 am 06:35 Cloudy with Mist and Fog 69 20.3 67 19.7 96 96 ESE 6 9 29.93 1014 3 4 N/A
6:55 am 06:55 Cloudy with Mist and Fog 68 20.2 67 19.7 97 97 ESE 6 9 29.93 1014 1 2 N/A
7:15 am 07:15 Cloudy with Mist and Fog 69 20.3 68 19.8 97 97 NE 5 7 29.93 1014 2 3 N/A
7:35 am 07:35 Cloudy with Mist and Fog 68 20.2 67 19.7 97 97 E 5 7 29.94 1014 2 3 N/A
7:55 am 07:55 Cloudy with Mist and Fog 69 20.3 68 19.8 97 97 E 6 9 29.94 1014 2 3 N/A
8:15 am 08:15 Cloudy with Mist and Fog 69 20.5 68 20 97 97 E 5 7 29.94 1014 2 3 N/A
8:35 am 08:35 Cloudy with Mist and Fog 69 20.5 68 20.1 98 98 E 7 11 29.94 1014 2 3 N/A
8:55 am 08:55 Cloudy with Mist and Fog 69 20.7 68 20.1 96 96 E 9 15 29.94 1014 3 5 N/A
9:15 am 09:15 Cloudy 70 21.2 68 20.1 93 93 E 8 13 29.94 1014 7 11 N/A
9:35 am 09:35 Cloudy 71 21.6 68 20.1 91 91 SE 8 13 29.94 1014 7 11 N/A
9:55 am 09:55 Cloudy 72 22 68 20.1 89 89 SE 8 13 29.93 1014 10 16 N/A
10:15 am 10:15 Cloudy 71 21.8 68 20 90 90 SE 7 11 29.94 1014 10 16 N/A
10:35 am 10:35 Cloudy 71 21.8 68 19.8 88 88 E 8 13 29.94 1014 10 16 N/A
10:55 am 10:55 Cloudy 72 22 68 19.8 87 87 ESE 9 15 29.93 1014 10 16 N/A
11:15 am 11:15 Cloudy 73 22.5 68 20 86 86 E 7 11 29.93 1014 10 16 N/A
11:35 am 11:35 Cloudy 73 23 68 20.2 84 84 SE 7 11 29.93 1013 10 16 N/A
11:50 am 11:50 Cloudy 75 23.8 68 19.8 78 78 SSE 9 15 29.92 1013 10 16 N/A
12:15 pm 12:15 Cloudy 74 23.6 68 19.9 80 80 S 9 15 29.92 1013 10 16 N/A
12:35 pm 12:35 Cloudy 75 24 68 20.1 79 79 SSE 7 11 29.92 1013 10 16 N/A
12:55 pm 12:55 Cloudy 76 24.4 68 20.2 78 78 SSE 8 13 29.91 1013 10 16 N/A
1:15 pm 13:15 Mostly Cloudy 77 24.8 69 20.4 77 77 SSE 9 15 29.91 1013 10 16 N/A
1:35 pm 13:35 Mostly Cloudy 77 25.1 68 20.2 74 74 SSE 8 13 29.91 1013 10 16 N/A
1:55 pm 13:55 Cloudy 78 25.5 69 20.7 75 75 S 6 9 29.91 1013 10 16 N/A
2:15 pm 14:15 Mostly Cloudy 79 25.9 69 20.3 71 71 S 8 13 29.90 1013 10 16 N/A
2:35 pm 14:35 Mostly Cloudy 79 26.2 68 19.9 68 68 SSE 5 7 29.89 1012 10 16 N/A
2:55 pm 14:55 Mostly Cloudy 80 26.7 68 20.1 67 67 SSE 7 11 29.89 1012 10 16 N/A
3:15 pm 15:15 Partly Cloudy 80 26.8 69 20.3 68 68 SE 8 13 29.87 1012 10 16 N/A
3:35 pm 15:35 Partly Cloudy 81 27.3 68 20.2 65 65 SSE 8 13 29.87 1012 10 16 N/A
3:55 pm 15:55 Sunny 82 27.5 68 20.1 64 64 SE 6 9 29.86 1011 10 16 N/A
4:15 pm 16:15 Sunny 82 27.5 68 20.1 64 64 SSE 7 11 29.86 1011 10 16 N/A
4:35 pm 16:35 Sunny 82 27.9 68 20.2 63 63 SSE 9 15 29.85 1011 10 16 N/A
4:55 pm 16:55 Sunny 82 27.6 69 20.3 64 64 SSE 13 20 29.84 1010 10 16 N/A
5:15 pm 17:15 Sunny 82 28 69 20.6 64 64 SSE 9 15 29.84 1010 10 16 N/A
5:35 pm 17:35 Sunny 83 28.1 69 20.4 63 63 SE 10 17 29.83 1010 10 16 N/A
5:55 pm 17:55 Sunny 83 28.1 69 20.3 63 63 SE 8 13 29.83 1010 10 16 N/A
6:15 pm 18:15 Sunny 83 28.1 69 20.5 63 63 SSE 8 13 29.83 1010 10 16 N/A
6:35 pm 18:35 Sunny 82 27.6 70 21 67 67 SE 10 17 29.83 1010 10 16 N/A
6:55 pm 18:55 Sunny 82 27.5 70 21 68 68 SE 8 13 29.83 1010 10 16 N/A
7:15 pm 19:15 Sunny 81 27.2 70 21.1 69 69 SE 9 15 29.83 1010 10 16 N/A
7:35 pm 19:35 Sunny 80 26.9 70 21.1 71 71 ESE 10 17 29.82 1010 10 16 N/A
7:55 pm 19:55 Sunny 80 26.5 70 20.9 71 71 ESE 12 19 29.83 1010 10 16 N/A
8:15 pm 20:15 Sunny 79 26 70 21 74 74 ESE 9 15 29.84 1011 10 16 N/A
8:35 pm 20:35 Sunny 78 25.5 70 21 76 76 ESE 12 19 29.84 1010 10 16 N/A
8:55 pm 20:55 Sunny 77 25 70 21 79 79 ESE 13 20 29.84 1010 10 16 N/A
9:15 pm 21:15 Clear 76 24.4 70 21 81 81 ESE 12 19 29.86 1011 10 16 N/A
9:35 pm 21:35 Clear 75 24 70 21 83 83 ESE 8 13 29.87 1011 10 16 N/A
9:55 pm 21:55 Clear 74 23.5 70 21.1 86 86 ESE 10 17 29.87 1012 10 16 N/A
10:15 pm 22:15 Clear 74 23.2 70 21 87 87 ESE 12 19 29.88 1012 10 16 N/A
10:35 pm 22:35 Clear 73 23 70 21 89 89 ESE 12 19 29.91 1013 10 16 N/A
10:55 pm 22:55 Clear 73 22.8 69 20.8 89 89 ESE 12 19 29.92 1013 10 16 N/A
11:15 pm 23:15 Clear 73 22.5 69 20.7 90 90 ESE 9 15 29.91 1013 10 16 N/A
11:35 pm 23:35 Clear 72 22.2 69 20.6 91 91 SE 9 15 29.92 1013 10 16 N/A
11:55 pm 23:55 Clear 72 22 69 20.5 91 91 ESE 10 17 29.92 1013 10 16 N/A

Powered by AerisWeather